[[{"header":{"parameterUnit":"m.s-1","parameterCategory":1,"la1":30.2991,"la2":30.254,"lo1":-89.0895,"lo2":-89.0444,"dy":0.0017,"dx":0.0017,"nx":28,"ny":28,"refTime":"2024-02-28T09:00:00:Z","depth":0,"parameterNumber":2,"parameterNumberName":"U-component_of_WINDS"},"data":[0,0,0,0,0,0,0,0,0,0,0,0,0,0,0,0,0,0,0,0,0,0,0,0,0,0,0,0,0,0,0,0,0,0,0,0,0,0,0,0,0,0,0,0,0,0,0,0,0,0,0,0,0,0,0,0,0,0,0.612,0.6119,0,0.6063,0.6062,0.6062,0.6065,0.6066,0.6067,0.6068,0.6007,0.6004,0.6002,0,0,0,0,0,0,0,0,0,0,0,0,0,0.623,0.6228,0.612,0.6119,0.6119,0.6063,0.6062,0.6062,0.6065,0.6066,0.6067,0.6068,0.6008,0.6005,0.6002,0,0,0,0,0,0,0,0,0,0,0,0,0,0.6178,0.6227,0.612,0.6114,0.6113,0.6063,0.6062,0.6061,0.6065,0.6066,0.6067,0.6069,0.6008,0.6005,0.6001,0.5954,0,0,0.599,0.5989,0,0,0,0,0,0,0,0,0.6181,0.6174,0.6115,0.6114,0.6113,0.6073,0.6079,0.6025,0.6065,0.6083,0.6068,0.6069,0.6027,0.6022,0.6009,0.5951,0.5948,0.599,0.5988,0.5986,0.5985,0,0,0,0,0,0,0,0.6185,0.6177,0.6097,0.6115,0.6113,0.6113,0.6107,0.6068,0.6049,0.6081,0.6082,0.6075,0.6027,0.6012,0.6007,0.5948,0.599,0.5987,0.5985,0.5983,0.5847,0.5846,0,0,0,0,0,0,0.619,0.618,0.6099,0.6096,0.6151,0.611,0.6103,0.6084,0.6049,0.6045,0.6074,0.6075,0.6018,0.6012,0.6005,0.5947,0.5986,0.5983,0.5981,0.5849,0.5847,0.5845,0,0,0,0,0,0,0.6192,0.6183,0.6102,0.6138,0.6127,0.6107,0.6085,0.6082,0.6068,0.6044,0.604,0.6063,0.6019,0.601,0.5967,0.5945,0.5981,0.5978,0.585,0.5848,0.5846,0.5831,0,0,0,0,0,0,0.6195,0.6184,0.6166,0.6137,0.6125,0.6065,0.6084,0.608,0.6062,0.6063,0.6032,0.6028,0.6019,0.5972,0.5963,0.5941,0.5975,0.5852,0.5849,0.5847,0.5834,0.5829,0.5825,0,0,0,0,0,0.6199,0.6164,0.6165,0.6155,0.6103,0.6064,0.6057,0.6048,0.606,0.6042,0.6026,0.6029,0.5949,0.5968,0.5958,0.5934,0.5854,0.585,0.5847,0.5836,0.583,0.5825,0,0,0,0,0,0,0.619,0.616,0.6161,0.6115,0.6092,0.6064,0.6041,0.6042,0.6014,0.6016,0.6005,0.5998,0.5955,0.594,0.5961,0.5886,0.5903,0.5897,0.5897,0.5892,0.5887,0.5892,0.5972,0,0,0,0,0,0.6183,0.6154,0.6129,0.6091,0.6079,0.6062,0.6044,0.6039,0.6015,0.6005,0.5986,0.5961,0.593,0.591,0.588,0.5831,0.5824,0.581,0.5805,0.5802,0.5798,0.577,0.5763,0.5835,0.5835,0.5835,0,0,0.6167,0.6147,0.6129,0.6088,0.607,0.6039,0.6054,0.6021,0.5998,0.5999,0.5958,0.5942,0.5914,0.5867,0.5846,0.5853,0.5776,0.5798,0.5795,0.5793,0.5766,0.5759,0.5753,0.5832,0.5833,0.5833,0,0,0.6123,0.6105,0.6072,0.6053,0.6025,0.6014,0.6005,0.5977,0.5968,0.5926,0.5926,0.5898,0.5845,0.5824,0.5807,0.5755,0.5756,0.5745,0.5722,0.5696,0.569,0.5685,0.5667,0.566,0.5741,0.5741,0.5741,0,0.6107,0.6063,0.6054,0.6021,0.6003,0.6003,0.5968,0.595,0.5913,0.59,0.591,0.5843,0.5824,0.5772,0.576,0.5745,0.5735,0.5749,0.5692,0.5687,0.5682,0.5664,0.5657,0.5739,0.574,0.574,0.574,0,0.6045,0.6013,0.5989,0.5955,0.5934,0.59,0.5885,0.5865,0.5861,0.5849,0.5805,0.5782,0.5747,0.5734,0.573,0.5682,0.5688,0.5694,0.5711,0.5674,0.5657,0.565,0.5738,0.5738,0.5739,0.5739,0,0,0.5994,0.5955,0.5946,0.5931,0.5899,0.5875,0.584,0.5807,0.579,0.5764,0.5735,0.569,0.5696,0.5676,0.5669,0.5646,0.5606,0.5655,0.5654,0.5647,0.5551,0.5547,0.5539,0.5606,0.5605,0.5604,0.5553,0,0.5948,0.5889,0.588,0.5827,0.5798,0.5797,0.5767,0.5744,0.5731,0.5704,0.5689,0.5657,0.5668,0.5656,0.5632,0.5616,0.5586,0.5619,0.5578,0.5577,0.5587,0.553,0.5525,0.5479,0.5547,0.5545,0.5545,0,0.5886,0.5859,0.5804,0.5777,0.5764,0.5738,0.5707,0.568,0.5654,0.5646,0.5624,0.562,0.5583,0.5601,0.555,0.5573,0.5555,0.5544,0.5542,0.5539,0.5559,0.5525,0.5464,0.5457,0.5534,0.5535,0.5536,0,0.5855,0.5806,0.5766,0.5753,0.5719,0.5701,0.5686,0.566,0.5641,0.5613,0.56,0.5568,0.555,0.5525,0.5512,0.5526,0.5462,0.5479,0.5454,0.5454,0.5441,0.5442,0.5377,0.5429,0.5429,0.5429,0.5429,0,0.5805,0.5771,0.5752,0.5728,0.569,0.5679,0.5641,0.5627,0.5604,0.5576,0.5573,0.5546,0.5531,0.5502,0.5491,0.545,0.5442,0.5434,0.5432,0.5435,0.5436,0.5424,0.5427,0.5427,0.5428,0.5428,0.5428,0,0.5764,0.575,0.5707,0.5679,0.5671,0.5645,0.562,0.5596,0.5583,0.5548,0.5539,0.5518,0.5484,0.5468,0.5425,0.5418,0.5372,0.5372,0.5381,0.5381,0.5357,0.536,0.5282,0.5271,0.533,0.5329,0.5329,0,0.5733,0.5708,0.5677,0.5659,0.5644,0.5614,0.5594,0.5582,0.5561,0.5529,0.5508,0.5474,0.5446,0.5391,0.5371,0.5339,0.5338,0.5313,0.5333,0.5336,0.5338,0.534,0.5337,0.5309,0.5309,0.5308,0.5308,0,0.568,0.5674,0.5647,0.5616,0.5593,0.5568,0.5544,0.5529,0.5512,0.5489,0.5455,0.5433,0.539,0.5356,0.5321,0.5305,0.5303,0.5301,0.5294,0.5297,0.5304,0.53,0.5372,0.5304,0.5304,0.5304,0.5305,0.5305,0.5644,0.5621,0.5596,0.5565,0.5545,0.5522,0.5499,0.5483,0.5454,0.5419,0.5413,0.5376,0.5348,0.5303,0.5284,0.5255,0.526,0.525,0.5247,0.5245,0.5243,0.5309,0.5248,0.5248,0.5248,0.5248,0.5248,0,0.559,0.5574,0.5546,0.5512,0.5488,0.5489,0.5462,0.5441,0.5409,0.5384,0.5357,0.5317,0.5284,0.5261,0.5227,0.5207,0.5206,0.5199,0.5201,0.5197,0.524,0.525,0.5201,0.5201,0.5201,0.5201,0.5201,0.5201,0.556,0.5521,0.5512,0.5464,0.5447,0.5412,0.5396,0.5375,0.5355,0.5311,0.5284,0.527,0.5245,0.5209,0.5178,0.5173,0.516,0.5153,0.5147,0.5189,0.5194,0.5198,0.5208,0.515,0.515,0.5107,0.5106,0.5106]},{"header":{"parameterUnit":"m.s-1","parameterCategory":1,"la1":30.2991,"la2":30.254,"lo1":-89.0895,"lo2":-89.0444,"dy":0.0017,"dx":0.0017,"nx":28,"ny":28,"refTime":"2024-02-28T09:00:00:Z","depth":0,"parameterNumber":3,"parameterNumberName":"V-component_of_WINDS"},"data":[0,0,0,0,0,0,0,0,0,0,0,0,0,0,0,0,0,0,0,0,0,0,0,0,0,0,0,0,0,0,0,0,0,0,0,0,0,0,0,0,0,0,0,0,0,0,0,0,0,0,0,0,0,0,0,0,0,0,3.1431,3.143,0,3.135,3.1349,3.1348,3.1349,3.135,3.1351,3.1352,3.1263,3.126,3.1256,0,0,0,0,0,0,0,0,0,0,0,0,0,3.158,3.1577,3.1431,3.143,3.1429,3.135,3.1349,3.1348,3.1349,3.135,3.1351,3.1352,3.1264,3.126,3.1256,0,0,0,0,0,0,0,0,0,0,0,0,0,3.1509,3.1577,3.1431,3.142,3.1418,3.135,3.1349,3.1348,3.1348,3.135,3.1351,3.1353,3.1265,3.1261,3.1256,3.1192,0,0,3.124,3.1238,0,0,0,0,0,0,0,0,3.1513,3.1503,3.1422,3.142,3.1418,3.1361,3.1369,3.1295,3.1348,3.1374,3.1352,3.1354,3.1294,3.1287,3.1268,3.1188,3.1184,3.124,3.1237,3.1234,3.1233,0,0,0,0,0,0,0,3.1518,3.1507,3.1399,3.1421,3.1419,3.1417,3.1409,3.1355,3.1326,3.1372,3.1372,3.1363,3.1293,3.1273,3.1266,3.1183,3.124,3.1235,3.1232,3.123,3.1047,3.1045,0,0,0,0,0,0,3.1526,3.1511,3.1401,3.1396,3.1471,3.1413,3.1404,3.1378,3.1327,3.132,3.1362,3.1363,3.1281,3.1272,3.1263,3.1186,3.1234,3.123,3.1227,3.1049,3.1047,3.1045,0,0,0,0,0,0,3.1529,3.1516,3.1404,3.1454,3.1439,3.1409,3.138,3.1375,3.1355,3.1319,3.1313,3.1347,3.1281,3.127,3.121,3.1182,3.1227,3.1223,3.1051,3.1048,3.1046,3.1031,0,0,0,0,0,0,3.1533,3.1517,3.1494,3.1453,3.1437,3.1355,3.1378,3.1373,3.1347,3.1348,3.1303,3.1297,3.1282,3.1218,3.1205,3.1176,3.1219,3.1053,3.105,3.1046,3.1033,3.1028,3.1023,0,0,0,0,0,3.1539,3.1491,3.1493,3.148,3.1407,3.1353,3.1344,3.1329,3.1345,3.132,3.1297,3.1298,3.1187,3.1212,3.1197,3.1167,3.1055,3.1051,3.1047,3.1036,3.1029,3.1023,0,0,0,0,0,0,3.1527,3.1486,3.1487,3.1425,3.1393,3.1354,3.1323,3.1322,3.1283,3.1286,3.1268,3.1257,3.1198,3.1176,3.1204,3.1103,3.1123,3.1116,3.1119,3.1112,3.1107,3.1114,3.1215,0,0,0,0,0,3.1518,3.148,3.1445,3.1394,3.1378,3.1353,3.1329,3.1321,3.1286,3.1272,3.1244,3.1208,3.1166,3.1138,3.1096,3.103,3.102,3.1002,3.0996,3.0992,3.0986,3.095,3.0942,3.1031,3.1031,3.1031,0,0,3.1498,3.147,3.1447,3.1391,3.1365,3.1324,3.1341,3.1297,3.1266,3.1264,3.1207,3.1185,3.1144,3.1082,3.1052,3.1062,3.096,3.0987,3.0984,3.098,3.0945,3.0937,3.0929,3.1028,3.1029,3.1029,0,0,3.1441,3.1416,3.1372,3.1346,3.1307,3.1291,3.1281,3.1241,3.1227,3.117,3.1168,3.113,3.1057,3.1028,3.1004,3.0936,3.0936,3.0923,3.0895,3.086,3.0853,3.0847,3.0824,3.0815,3.0917,3.0917,3.0917,0,3.142,3.136,3.1348,3.1305,3.128,3.1278,3.1232,3.1207,3.1156,3.1138,3.1149,3.1058,3.103,3.0961,3.0945,3.0925,3.0912,3.0928,3.0856,3.0849,3.0843,3.0821,3.0812,3.0916,3.0916,3.0916,3.0916,0,3.1337,3.1296,3.1264,3.1218,3.1189,3.1144,3.1124,3.1096,3.109,3.1073,3.1014,3.0981,3.0933,3.0916,3.0909,3.0846,3.0853,3.086,3.088,3.0834,3.0812,3.0803,3.0914,3.0915,3.0915,3.0915,0,0,3.127,3.1219,3.1207,3.1187,3.1145,3.1111,3.1066,3.1022,3.0999,3.0963,3.0924,3.0863,3.087,3.0842,3.0832,3.0801,3.0751,3.0812,3.0811,3.0802,3.0679,3.0675,3.0665,3.075,3.0748,3.0747,3.0683,0,3.1209,3.1132,3.112,3.1051,3.1012,3.101,3.0971,3.094,3.0922,3.0885,3.0865,3.0822,3.0834,3.0817,3.0787,3.0763,3.0726,3.0768,3.0713,3.0711,3.0724,3.0654,3.0649,3.059,3.0675,3.0673,3.0672,0,3.1128,3.1093,3.1021,3.0986,3.0969,3.0934,3.0893,3.0858,3.0822,3.0811,3.0781,3.0775,3.0726,3.0749,3.0681,3.071,3.0687,3.0672,3.0669,3.0664,3.0689,3.0647,3.0571,3.0563,3.0659,3.066,3.0661,0,3.1088,3.1022,3.0972,3.0954,3.091,3.0886,3.0866,3.0832,3.0806,3.0769,3.0752,3.0709,3.0686,3.0652,3.0633,3.0651,3.0568,3.0588,3.0556,3.0557,3.0539,3.0541,3.0459,3.0523,3.0523,3.0524,3.0524,0,3.1021,3.0977,3.0953,3.0922,3.0873,3.0858,3.0809,3.0789,3.0759,3.0723,3.0717,3.0683,3.066,3.0622,3.0607,3.0554,3.0543,3.0532,3.0529,3.0533,3.0535,3.0518,3.0522,3.0521,3.0522,3.0522,3.0523,0,3.0968,3.095,3.0895,3.0859,3.0849,3.0814,3.0782,3.0751,3.0733,3.0687,3.0676,3.0647,3.0603,3.0581,3.0524,3.0514,3.0454,3.0453,3.0467,3.0466,3.0436,3.0439,3.0341,3.0328,3.04,3.0399,3.0399,0,3.0927,3.0894,3.0855,3.0832,3.0812,3.0774,3.0749,3.0732,3.0706,3.0663,3.0637,3.0592,3.0556,3.0483,3.0457,3.0413,3.0411,3.038,3.0405,3.041,3.0412,3.0414,3.0411,3.0376,3.0375,3.0374,3.0374,0,3.0857,3.0851,3.0815,3.0777,3.0747,3.0715,3.0684,3.0665,3.0643,3.0613,3.0569,3.054,3.0484,3.0439,3.0394,3.0372,3.0369,3.0366,3.0357,3.0361,3.0371,3.0366,3.0456,3.0369,3.0369,3.037,3.037,3.037,3.081,3.0781,3.0749,3.071,3.0685,3.0656,3.0626,3.0605,3.0569,3.0523,3.0515,3.0467,3.0432,3.0372,3.0348,3.0309,3.0316,3.0302,3.0299,3.0296,3.0295,3.0377,3.0301,3.0301,3.0301,3.0301,3.0301,0,3.074,3.072,3.0684,3.0642,3.0611,3.0613,3.0579,3.0552,3.0511,3.048,3.0445,3.0393,3.035,3.0321,3.0276,3.0251,3.0249,3.024,3.0242,3.0237,3.0291,3.0304,3.0243,3.0243,3.0243,3.0243,3.0243,3.0243,3.07,3.0652,3.0641,3.0579,3.0559,3.0514,3.0495,3.0468,3.0443,3.0386,3.0351,3.0333,3.0302,3.0256,3.0216,3.0208,3.0192,3.0184,3.0176,3.0227,3.0233,3.0239,3.0251,3.018,3.018,3.0126,3.0125,3.0125]}]]